Latest Coastal Weather Observations for Cape Byron

IDN60701

Issued at 3:21 pm EDT Thursday 19 January 2017 (issued every 10 minutes, with the page automatically refreshed every 10 minutes)

About coastal observations | Map of coastal stations | Coastal observations for NSW | Marine services | Other Formats
Station Details ID: 058216 Name: CAPE BYRON AWS Lat: -28.64 Lon: 153.64 Height: 95.0 m
Data from the previous 72 hours. | See also: Recent months at Cape Byron
Date/Time
EDT
Temp
°C
Wind Pressure Rain since
9am
mm
Weather Cloud Vis
km
Sea
Height
m
Swell
Dir  Spd
kts
Gust
kts
hPa Trend Height
m
Period
s
Dir
19/03:00pm 26.2 SSE 13 18 1011.5 - 0.0 - - - - - - -
19/02:30pm 25.9 S 14 18 1011.6 - 0.0 - - - - - - -
19/02:00pm 26.5 S 16 21 1011.7 - 0.0 - - - - - - -
19/01:30pm 25.5 S 14 17 1012.0 - 0.0 - - - - - - -
19/01:00pm 25.5 S 14 16 1012.2 - 0.0 - - - - - - -
19/12:30pm 24.8 SSW 15 17 1012.3 - 0.0 - - - - - - -
19/12:00pm 24.6 SSW 16 17 1012.3 - 0.0 - - - - - - -
19/11:30am 24.5 SSW 17 19 1012.4 - 0.0 - - - - - - -
19/11:00am 24.3 SSW 18 20 1012.4 - 0.0 - - - - - - -
19/10:30am 24.2 SSW 17 21 1012.5 - 0.0 - - - - - - -
19/10:00am 24.3 SSW 17 20 1012.3 - 0.0 - - - - - - -
19/09:30am 23.9 SSW 17 21 1012.3 - 0.0 - - - - - - -
19/09:00am 23.5 SSW 18 21 1012.0 - 0.0 - - - - - - -
19/08:30am 23.2 SSW 18 21 1012.0 - 0.0 - - - - - - -
19/08:00am 22.9 SSW 17 19 1011.8 - 0.0 - - - - - - -
19/07:30am 22.8 SSW 19 21 1011.5 - 0.0 - - - - - - -
19/07:00am 22.8 SSW 21 23 1011.0 - 0.0 - - - - - - -
19/06:30am 23.0 SSW 21 25 1010.5 - 0.0 - - - - - - -
19/06:00am 23.6 SSW 23 27 1010.0 - 0.0 - - - - - - -
19/05:30am 23.6 SSW 25 29 1009.4 - 0.0 - - - - - - -
19/05:00am 23.9 SSW 24 30 1009.0 - 0.0 - - - - - - -
19/04:30am 24.2 SSW 21 28 1008.7 - 0.0 - - - - - - -
19/04:00am 24.3 SW 22 27 1008.4 - 0.0 - - - - - - -
19/03:30am 24.3 SW 20 30 1008.2 - 0.0 - - - - - - -
19/03:29am 24.3 SW 20 30 1008.2 - 0.0 - - - - - - -
19/03:00am 24.0 SW 19 26 1008.1 - 0.0 - - - - - - -
19/02:30am 24.4 SSW 20 25 1008.2 - 0.0 - - - - - - -
19/02:00am 24.3 SSW 23 29 1008.2 - 0.0 - - - - - - -
19/01:30am 24.2 SSW 23 29 1008.1 - 0.0 - - - - - - -
19/01:09am 24.8 SSW 27 37 1008.0 - 0.0 - - - - - - -
19/01:00am 25.4 SSW 25 37 1008.0 - 0.0 - - - - - - -
19/12:58am 25.4 SW 21 37 1008.1 - 0.0 - - - - - - -
19/12:55am 25.6 SW 17 30 1008.4 - 0.0 - - - - - - -
19/12:44am 24.0 NNW 14 29 1008.4 - 0.0 - - - - - - -
19/12:30am 24.1 N 15 18 1006.9 - 0.0 - - - - - - -
19/12:00am 24.4 N 16 20 1007.1 - 0.0 - - - - - - -
 
Date/Time
EDT
Temp
°C
Wind Pressure Rain since
9am
mm
Weather Cloud Vis
km
Sea
Height
m
Swell
Dir  Spd
kts
Gust
kts
hPa Trend Height
m
Period
s
Dir
18/11:30pm 24.6 N 15 20 1007.4 - 0.0 - - - - - - -
18/11:00pm 25.1 N 16 20 1007.6 - 0.0 - - - - - - -
18/10:30pm 25.1 N 15 20 1007.7 - 0.0 - - - - - - -
18/10:00pm 25.1 N 16 21 1007.7 - 0.0 - - - - - - -
18/09:30pm 24.6 N 16 20 1007.6 - 0.0 - - - - - - -
18/09:00pm 24.3 N 15 19 1007.4 - 0.0 - - - - - - -
18/08:30pm 24.4 N 14 20 1007.2 - 0.0 - - - - - - -
18/08:00pm 24.7 N 15 21 1006.7 - 0.0 - - - - - - -
18/07:30pm 25.1 N 15 25 1006.5 - 0.0 - - - - - - -
18/07:29pm 25.2 N 15 25 1006.5 - 0.0 - - - - - - -
18/07:00pm 25.8 N 17 23 1006.3 - 0.0 - - - - - - -
18/06:30pm 26.1 N 18 25 1006.2 - 0.0 - - - - - - -
18/06:00pm 26.5 NNE 17 27 1006.1 - 0.0 - - - - - - -
18/05:59pm 26.5 N 17 27 1006.1 - 0.0 - - - - - - -
18/05:30pm 26.7 N 19 25 1006.3 - 0.0 - - - - - - -
18/05:06pm 26.8 NNE 18 29 1006.4 - 0.0 - - - - - - -
18/05:00pm 26.8 N 18 25 1006.4 - 0.0 - - - - - - -
18/04:44pm 26.8 N 18 28 1006.6 - 0.0 - - - - - - -
18/04:30pm 26.9 N 17 24 1006.9 - 0.0 - - - - - - -
18/04:00pm 27.2 N 19 25 1007.4 - 0.0 - - - - - - -
18/03:30pm 27.4 NNE 17 24 1007.9 - 0.0 - - - - - - -
18/03:00pm 27.7 NNE 17 25 1008.3 - 0.0 - - - - - - -
18/02:30pm 27.8 NNE 17 24 1008.7 - 0.0 - - - - - - -
18/02:19pm 27.8 NNE 16 26 1008.8 - 0.0 - - - - - - -
18/02:00pm 27.8 NNE 16 24 1009.2 - 0.0 - - - - - - -
18/01:30pm 27.4 NNE 17 24 1009.4 - 0.0 - - - - - - -
18/01:00pm 27.5 NNE 16 26 1009.9 - 0.0 - - - - - - -
18/12:50pm 27.2 NNE 16 26 1010.1 - 0.0 - - - - - - -
18/12:30pm 27.6 NNE 16 21 1010.4 - 0.0 - - - - - - -
18/12:00pm 27.8 NNE 15 21 1010.8 - 0.0 - - - - - - -
18/11:30am 28.2 NNE 9 14 1011.3 - 0.0 - - - - - - -
18/11:00am 27.6 N 9 12 1011.7 - 0.0 - - - - - - -
18/10:30am 27.2 N 9 14 1011.8 - 0.0 - - - - - - -
18/10:00am 26.5 N 9 12 1012.0 - 0.0 - - - - - - -
18/09:30am 25.5 N 10 13 1012.3 - 0.0 - - - - - - -
18/09:00am 24.5 N 10 13 1012.3 - 0.0 - - - - - - -
18/08:30am 24.1 NNW 8 11 1012.5 - 0.0 - - - - - - -
18/08:00am 23.2 NNW 10 14 1012.3 - 0.0 - - - - - - -
18/07:30am 22.8 NNW 9 13 1012.4 - 0.0 - - - - - - -
18/07:00am 23.1 NW 7 14 1012.4 - 0.0 - - - - - - -
18/06:30am 22.9 N 13 18 1011.8 - 0.0 - - - - - - -
18/06:00am 22.7 N 11 16 1011.8 - 0.0 - - - - - - -
18/05:30am 22.7 N 12 16 1011.7 - 0.0 - - - - - - -
18/05:00am 22.8 N 11 16 1011.6 - 0.0 - - - - - - -
18/04:30am 22.7 N 12 17 1011.5 - 0.0 - - - - - - -
18/04:00am 22.8 NNW 10 16 1011.5 - 0.0 - - - - - - -
18/03:30am 22.9 N 13 19 1011.5 - 0.0 - - - - - - -
18/03:00am 23.1 N 14 20 1011.9 - 0.0 - - - - - - -
18/02:30am 23.1 N 12 16 1012.4 - 0.0 - - - - - - -
18/02:00am 23.2 N 13 19 1012.8 - 0.0 - - - - - - -
18/01:30am 23.4 N 12 17 1013.2 - 0.0 - - - - - - -
18/01:00am 23.7 N 13 19 1013.6 - 0.0 - - - - - - -
18/12:30am 23.8 N 12 18 1014.0 - 0.0 - - - - - - -
18/12:00am 23.8 N 13 18 1014.4 - 0.0 - - - - - - -
 
Date/Time
EDT
Temp
°C
Wind Pressure Rain since
9am
mm
Weather Cloud Vis
km
Sea
Height
m
Swell
Dir  Spd
kts
Gust
kts
hPa Trend Height
m
Period
s
Dir
17/11:30pm 23.7 NNW 11 16 1014.7 - 0.0 - - - - - - -
17/11:00pm 23.8 N 13 17 1014.8 - 0.0 - - - - - - -
17/10:30pm 23.9 N 13 17 1014.9 - 0.0 - - - - - - -
17/10:00pm 24.2 N 13 18 1015.0 - 0.0 - - - - - - -
17/09:30pm 24.2 N 13 17 1015.0 - 0.0 - - - - - - -
17/09:00pm 24.3 N 12 16 1014.9 - 0.0 - - - - - - -
17/08:30pm 24.3 N 11 15 1014.7 - 0.0 - - - - - - -
17/08:00pm 24.7 N 11 16 1014.3 - 0.0 - - - - - - -
17/07:30pm 25.3 N 12 16 1014.2 - 0.0 - - - - - - -
17/07:00pm 26.1 N 15 22 1013.9 - 0.0 - - - - - - -
17/06:30pm 26.4 N 16 23 1013.8 - 0.0 - - - - - - -
17/06:00pm 26.8 NNE 17 23 1013.9 - 0.0 - - - - - - -
17/05:30pm 27.0 NNE 16 23 1013.8 - 0.0 - - - - - - -
17/05:00pm 27.3 NNE 16 21 1014.0 - 0.0 - - - - - - -
17/04:30pm 27.6 NNE 14 19 1014.2 - 0.0 - - - - - - -
17/04:00pm 27.6 NNE 13 19 1014.2 - 0.0 - - - - - - -
17/03:30pm 27.9 NNE 13 18 1014.4 - 0.0 - - - - - - -
17/03:00pm 28.0 NE 14 20 1014.6 - 0.0 - - - - - - -
17/02:30pm 28.4 NE 15 21 1014.8 - 0.0 - - - - - - -
17/02:00pm 28.5 NE 15 21 1015.3 - 0.0 - - - - - - -
17/01:30pm 28.3 NE 14 19 1015.6 - 0.0 - - - - - - -
17/01:00pm 28.1 NNE 10 14 1016.4 - 0.0 - - - - - - -
17/12:30pm 28.1 NNE 10 14 1016.7 - 0.0 - - - - - - -
17/12:00pm 28.2 NNE 9 12 1017.0 - 0.0 - - - - - - -
17/11:30am 28.1 NNE 8 11 1017.1 - 0.0 - - - - - - -
17/11:00am 28.0 N 8 10 1017.3 - 0.0 - - - - - - -
17/10:30am 27.9 N 7 9 1017.5 - 0.0 - - - - - - -
17/10:00am 27.4 NNE 5 7 1017.4 - 0.0 - - - - - - -
17/09:30am 26.9 NNE 5 6 1017.4 - 0.0 - - - - - - -
17/09:00am 26.3 N 4 6 1017.5 - 0.0 - - - - - - -
17/08:30am 25.8 NNW 3 5 1017.4 - 0.0 - - - - - - -
17/08:00am 25.2 NNW 3 5 1017.3 - 0.0 - - - - - - -
17/07:30am 24.2 NNW 3 4 1017.1 - 0.0 - - - - - - -
17/07:00am 23.3 NW 4 5 1016.9 - 0.0 - - - - - - -
17/06:30am 22.9 WNW 6 6 1016.6 - 0.0 - - - - - - -
17/06:00am 22.7 WNW 6 7 1016.3 - 0.0 - - - - - - -
17/05:30am 22.8 WNW 6 8 1016.1 - 0.0 - - - - - - -
17/05:00am 22.8 WNW 6 7 1015.8 - 0.0 - - - - - - -
17/04:30am 22.8 WNW 5 6 1015.6 - 0.0 - - - - - - -
17/04:00am 22.6 NW 6 8 1015.6 - 0.0 - - - - - - -
17/03:30am 22.9 NW 5 8 1015.6 - 0.0 - - - - - - -
17/03:00am 23.1 NNW 6 7 1015.8 - 0.0 - - - - - - -
17/02:30am 22.8 NW 5 7 1015.8 - 0.0 - - - - - - -
17/02:00am 22.8 NW 6 8 1015.9 - 0.0 - - - - - - -
17/01:30am 23.0 NW 5 7 1016.1 - 0.0 - - - - - - -
17/01:00am 23.3 NNW 6 8 1016.3 - 0.0 - - - - - - -
17/12:30am 23.4 NNW 6 7 1016.6 - 0.0 - - - - - - -
17/12:00am 23.6 NNW 5 7 1016.8 - 0.0 - - - - - - -
 
Date/Time
EDT
Temp
°C
Wind Pressure Rain since
9am
mm
Weather Cloud Vis
km
Sea
Height
m
Swell
Dir  Spd
kts
Gust
kts
hPa Trend Height
m
Period
s
Dir
16/11:30pm 24.0 NNW 6 7 1016.9 - 0.0 - - - - - - -
16/11:00pm 24.3 N 5 6 1017.0 - 0.0 - - - - - - -
16/10:30pm 25.2 NE 10 13 1017.0 - 0.0 - - - - - - -
16/10:00pm 25.2 NE 10 13 1017.1 - 0.0 - - - - - - -
16/09:30pm 25.2 NE 11 14 1016.8 - 0.0 - - - - - - -
16/09:00pm 24.5 NE 11 14 1016.7 - 0.0 - - - - - - -
16/08:30pm 24.4 ENE 7 10 1016.5 - 0.0 - - - - - - -
16/08:00pm 24.5 ENE 7 8 1016.5 - 0.0 - - - - - - -
16/07:30pm 23.8 S 4 7 1016.3 - 0.0 - - - - - - -
16/07:00pm 23.4 S 8 9 1015.8 - 0.0 - - - - - - -
16/06:30pm 23.8 SSW 6 8 1015.5 - 0.0 - - - - - - -
16/06:00pm 24.6 S 6 7 1015.0 - 0.0 - - - - - - -
16/05:30pm 27.1 ESE 9 10 1014.8 - 0.0 - - - - - - -
16/05:00pm 27.8 ESE 9 11 1014.8 - 0.0 - - - - - - -
16/04:30pm 28.1 ESE 9 11 1014.6 - 0.0 - - - - - - -
16/04:00pm 27.1 E 9 13 1014.7 - 0.0 - - - - - - -
16/03:30pm 28.4 E 11 13 1014.8 - 0.0 - - - - - - -

Other Formats:

Comma delimited format used in spreadsheet applications
http://www.bom.gov.au/fwo/IDN60701/IDN60701.94599.axf

JavaScript Object Notation format (JSON) in row-major order
http://www.bom.gov.au/fwo/IDN60701/IDN60701.94599.json